This is the latest recevied weather packets stored in our database for station/object W4SKW. If no packets are shown the sender has not sent any weather packets the latest 10 day(s).
| Time | Temp. | Humidity | Pressure | Rain* | Wind** | Luminosity | Snow |
|---|---|---|---|---|---|---|---|
| 1777587435 | 20° C | 47% | 1014.1 hPa | 0 mm | - | 213 W/m² | - |
| 1777587133 | 20° C | 48% | 1013.9 hPa | 0 mm | - | 274 W/m² | - |
| 1777586828 | 20° C | 55% | 1013.7 hPa | 0 mm | - | 200 W/m² | - |
| 1777586523 | 19.44° C | 51% | 1013.7 hPa | 0 mm | - | 202 W/m² | - |
| 1777586219 | 20° C | 48% | 1013.9 hPa | 0 mm | - | 195 W/m² | - |
| 1777585917 | 20° C | 48% | 1013.6 hPa | 0 mm | - | 163 W/m² | - |
| 1777585612 | 19.44° C | 59% | 1014.1 hPa | 0 mm | - | 196 W/m² | - |
| 1777585307 | 19.44° C | 59% | 1014.1 hPa | 0 mm | - | 196 W/m² | - |
| 1777585002 | 19.44° C | 51% | 1013.9 hPa | 0 mm | - | 178 W/m² | - |
| 1777584699 | 19.44° C | 54% | 1013.7 hPa | 0 mm | - | 177 W/m² | - |
| 1777584397 | 19.44° C | 49% | 1013.8 hPa | 0 mm | - | 170 W/m² | - |
| 1777584093 | 19.44° C | 60% | 1013.9 hPa | 0 mm | - | 213 W/m² | - |
| 1777583792 | 19.44° C | 59% | 1014 hPa | 0 mm | - | 216 W/m² | - |
| 1777583487 | 20° C | 49% | 1013.9 hPa | 0 mm | - | 257 W/m² | - |
| 1777583182 | 19.44° C | 51% | 1013.9 hPa | 0 mm | - | 218 W/m² | - |
| 1777582877 | 20° C | 50% | 1013.9 hPa | 0 mm | - | 202 W/m² | - |
| 1777582575 | 20° C | 47% | 1014.1 hPa | 0 mm | - | 271 W/m² | - |
| 1777582270 | 20.56° C | 48% | 1014.3 hPa | 0 mm | - | 274 W/m² | - |
| 1777581967 | 20.56° C | 49% | 1014.4 hPa | 0 mm | - | 320 W/m² | - |
| 1777581663 | 20.56° C | 49% | 1014 hPa | 0 mm | - | 346 W/m² | - |
| 1777581356 | 20.56° C | 47% | 1013.9 hPa | 0 mm | - | 356 W/m² | - |
| 1777581052 | 20° C | 47% | 1014 hPa | 0 mm | - | 363 W/m² | - |
| 1777580751 | 20° C | 48% | 1014.1 hPa | 0 mm | - | 337 W/m² | - |
| 1777580448 | 20° C | 56% | 1014.3 hPa | 0 mm | - | 268 W/m² | - |
| 1777580148 | 20.56° C | 49% | 1014.3 hPa | 0 mm | - | 313 W/m² | - |
* Rain latest hour (hover to see other rain measurements)
** Current wind speed in m/s (hover to see current wind gust speed)